This is the latest recevied weather packets stored in our database for station/object IW2GOB-3. If no packets are shown the sender has not sent any weather packets the latest 1 day(s).
| Time | Temp. | Humidity | Pressure | Rain* | Wind** | Luminosity | Snow |
|---|---|---|---|---|---|---|---|
| 1777994723 | 15° C | 90% | 1011.6 hPa | 0 mm | 0.45 m/s, 99° | - | - |
| 1777994123 | 15° C | 90% | 1011.6 hPa | 0 mm | 2.24 m/s, 105° | - | - |
| 1777993523 | 15° C | 90% | 1011.7 hPa | 0 mm | 1.34 m/s, 75° | - | - |
| 1777992923 | 15° C | 90% | 1011.8 hPa | 0 mm | 2.24 m/s, 91° | - | - |
| 1777992323 | 15° C | 89% | 1011.9 hPa | 0 mm | 1.34 m/s, 68° | - | - |
| 1777991723 | 15° C | 89% | 1011.9 hPa | 0 mm | 2.24 m/s, 84° | - | - |
| 1777991123 | 15° C | 89% | 1011.8 hPa | 0 mm | 1.34 m/s, 68° | - | - |
| 1777990523 | 15° C | 89% | 1011.8 hPa | 0.25 mm | 0.89 m/s, 71° | - | - |
| 1777989923 | 15° C | 88% | 1011.8 hPa | 0.25 mm | 1.34 m/s, 81° | - | - |
| 1777989323 | 15.56° C | 87% | 1011.9 hPa | 0.25 mm | 0.45 m/s, 83° | - | - |
| 1777988723 | 15.56° C | 87% | 1011.9 hPa | 0.25 mm | 0 m/s | - | - |
| 1777988123 | 15.56° C | 85% | 1011.9 hPa | 0.25 mm | 0.89 m/s, 83° | - | - |
| 1777987523 | 15.56° C | 84% | 1012 hPa | 0.25 mm | 0.89 m/s, 98° | - | - |
| 1777986923 | 16.11° C | 83% | 1012.1 hPa | 0 mm | 0.89 m/s, 98° | - | - |
| 1777986323 | 16.11° C | 82% | 1011.9 hPa | 0 mm | 0.45 m/s, 97° | - | - |
| 1777985723 | 16.11° C | 82% | 1012 hPa | 0 mm | 0.89 m/s, 100° | - | - |
| 1777985123 | 16.11° C | 81% | 1012.1 hPa | 0 mm | 0.45 m/s, 114° | - | - |
| 1777984523 | 16.67° C | 80% | 1012 hPa | 0 mm | 0.45 m/s, 117° | - | - |
| 1777983923 | 16.67° C | 79% | 1011.9 hPa | 0 mm | 1.34 m/s, 75° | - | - |
| 1777983323 | 16.67° C | 79% | 1011.9 hPa | 0 mm | 1.34 m/s, 78° | - | - |
| 1777982723 | 17.22° C | 79% | 1012 hPa | 0 mm | 1.34 m/s, 70° | - | - |
| 1777982123 | 16.67° C | 80% | 1012 hPa | 0 mm | 2.24 m/s, 67° | - | - |
| 1777981523 | 16.67° C | 80% | 1012 hPa | 0 mm | 0.89 m/s, 98° | - | - |
| 1777980923 | 16.11° C | 81% | 1012 hPa | 0 mm | 2.24 m/s, 149° | - | - |
| 1777980323 | 16.11° C | 82% | 1012 hPa | 0 mm | 0.45 m/s, 83° | - | - |
* Rain latest hour (hover to see other rain measurements)
** Current wind speed in m/s (hover to see current wind gust speed)